Location: Saratoga Springs
(43.0831°N, 73.7850°W)
Time: 03:22:42
(UTC-04:00)

Vanguard 2 Rocket - Pass Details

Date: 18 April 2024
Orbit: 556 x 3304 km, 32.9° (Epoch: 17 May)

Event Time Altitude Azimuth Distance (km) Brightness Sun altitude
Rises 00:54:56 0° 256° (WSW) 6,941 11.3 -35.9°
Reaches altitude 10° 00:59:24 10° 253° (WSW) 6,097 10.9 -35.9°
Maximum altitude 01:19:00 61° 180° (S) 3,472 9.3 -35.6°
Drops below altitude 10° 01:35:13 10° 106° (ESE) 5,163 10.7 -35.1°
Sets 01:38:38 0° 102° (ESE) 5,872 11.1 -35.0°
